Regional Weather Roundup
Issued by NWS

Home | Current Version | Previous Version | Text Only | Print | Product List | Glossary On
Versions: 1 2 3 4 5 6 7 8 9 10 11 12 13 14 15 16 17 18 19 20 21 22 23 24 25 26 27
000
ASUS45 KTFX 251110
RWRMT
MONTANA REGIONAL WEATHER ROUNDUP
NATIONAL WEATHER SERVICE GREAT FALLS MT
400 AM MST SAT FEB 25 2017

NOTE: "FAIR" INDICATES FEW OR NO CLOUDS BELOW 12000 FEET WITH NO
SIGNIFICANT WEATHER AND/OR OBSTRUCTIONS TO VISIBILITY.

MTZ001>007-043-251200-
WEST OF THE DIVIDE

CITY           SKY/WX    TMP DP  RH WIND       PRES   REMARKS
KALISPELL      CLOUDY     9   7  92 SW3       30.03F
MISSOULA       CLOUDY    21  16  81 CALM      30.07F
BUTTE          LGT SNOW  14  10  84 SE5       29.93F FOG
MULLAN PASS    LGT SNOW  13  11  92 VRB3      29.90F FOG
ANACONDA         N/A     16   9  73 CALM      29.96F
DEER LODGE       N/A     19  12  73 CALM      29.99F
EUREKA           N/A     19  12  73 SE6       30.03S WCI  11
HAMILTON         N/A     23  12  63 S6        30.05S WCI  16
LIBBY            N/A     10   9  92 CALM      30.06F
PLAINS           N/A     13   6  73 CALM      30.10S
RONAN            N/A     23  16  75 CALM      30.06F
THOMPSON FALLS   N/A     18  14  84 CALM      30.13F
$$

MTZ008-052>055-251200-
SOUTHWEST MONTANA

CITY           SKY/WX    TMP DP  RH WIND       PRES   REMARKS
BOZEMAN        LGT SNOW  22  19  89 W9        29.96F VSB 1   WCI  12
DILLON         CLOUDY    17  12  80 SW12      29.94F WCI   4
W YELLOWSTONE  LGT SNOW  10   7  85 SW9       29.91F WCI  -2
ENNIS          CLOUDY    19  10  68 S15G22    29.98F WCI   5
THREE FORKS      N/A     23   9  55 CALM      29.97F
$$

MTZ009-010-012-014-046-048-049-054-251200-
EAST SLOPES AND CENTRAL MONTANA

CITY           SKY/WX    TMP DP  RH WIND       PRES   REMARKS
CUT BANK       CLEAR     14   9  80 W9        29.87F WCI   2
GREAT FALLS    CLEAR     18  13  80 SW12      29.93F WCI   5
MALMSTROM AFB  CLEAR     19  17  90 SW10      29.94F WCI   7
HELENA         CLEAR     21  12  68 CALM      29.97F
AUGUSTA        MOCLDY    15   9  76 W7        29.90F WCI   5
BOWMANS CRNR     N/A     14   8  76 SW5       29.91F
CHOTEAU          N/A     18  10  73 SW9       29.93F WCI   6
CONRAD           N/A     14   9  81 W6        29.93F WCI   5
POWER            N/A     15  10  82 SW10      29.91F WCI   2
RAYNESFORD       N/A     22  11  63 SW18      29.91F WCI   7
ULM            MOCLDY    17  13  85 MISG      29.94F
$$

MTZ011-013-016-021-045-047-050-051-251200-
NORTH CENTRAL MONTANA

CITY           SKY/WX    TMP DP  RH WIND       PRES   REMARKS
HAVRE          CLOUDY    21  19  92 SW10      29.95F WCI  10
LEWISTOWN      PTCLDY    13   9  84 SW13      29.91F WCI  -2
N BAR RANCH    CLOUDY    12   7  79 W7        29.93F WCI   2
CHINOOK          N/A     16  14  93 CALM      29.96F
DENTON           N/A     16  12  86 W21       29.90F WCI  -2
FORT BENTON      N/A     19  16  86 MISG      29.97F
GEYSER           N/A     15  11  85 SW5       29.91F
GRASS RANGE      N/A     15  10  83 CALM      29.89F
JUDITH GAP     MOCLDY    14  10  83 W3        29.90F
ROY              N/A     18  12  79 MISG      29.91F
STANFORD         N/A     17  12  80 W9        29.89F WCI   6
WINIFRED         N/A     17  14  89 W7        29.91F WCI   7
$$

MTZ017>020-022>027-061-062-251200-
NORTHEAST MONTANA

CITY           SKY/WX    TMP DP  RH WIND       PRES   REMARKS
GLASGOW        CLOUDY    19  17  92 CALM      29.96F
JORDAN           N/A     23  20  88 W7        29.95F WCI  15
SIDNEY         MOCLDY    19  17  92 NW10      29.95F WCI   7
WOLF POINT     CLEAR      9   5  84 NW5       29.98S
PLENTYWOOD       N/A     12  10  92 NW7       29.94F WCI   2
POPLAR           N/A     12   9  85 CALM      29.97F VSB 3/4
SCOBEY           N/A      9   0  67 CALM      29.93F
$$

MTZ028>42-056>058-251200-
SOUTHCENTRAL AND SOUTHEAST MONTANA

CITY           SKY/WX    TMP DP  RH WIND       PRES   REMARKS
BAKER          LGT SNOW  25  20  81 W9        29.91F WCI  15
BILLINGS       CLOUDY    23  19  85 SW8       29.95F WCI  14
LIVINGSTON     FLURRIES  22  16  78 W12       29.92F WCI  10
MILES CITY     FLURRIES  26  23  88 W8        29.95F WCI  18
BIG TIMBER     CLOUDY    21  18  86 SW23      29.94F HAZE    WCI   5
EKALAKA          N/A     24  19  81 W8        29.89F WCI  15
FORSYTH          N/A     23  21  93 SW7       29.98F WCI  15
HARLOWTON        N/A     14  11  88 NW7       29.91F WCI   4
LAUREL           N/A     22  16  78 CALM      29.94F
$$

REGIONAL REPORTS...DAKOTAS

CITY           SKY/WX    TMP DP  RH WIND       PRES   REMARKS
WILLISTON      CLEAR     19  17  92 CALM      29.94F
MINOT          MOCLDY    21  16  81 W9        29.90F WCI  11
DICKINSON      MOCLDY    18  13  80 W7        29.88F WCI   9
BEACH            N/A    N/A N/A N/A MISG        N/A
CROSBY         CLOUDY    19  19 100 NW10      29.96F WCI   8
TIOGA          CLOUDY    19  19 100 NW14      29.93F FOG     WCI   6
WATFORD CITY   MOCLDY    21  21 100 SW5       29.93F
BISMARCK       CLOUDY    19  15  84 CALM      29.96F
GRAND FORKS    CLOUDY    20  12  71 S9        29.96F WCI   9
FARGO          CLOUDY    17  14  88 S3        30.00F
BUFFALO SD       N/A     23  19  85 W8        29.84F WCI  14
RAPID CITY     CLEAR     13   7  77 W5        29.93F
$$

REGIONAL REPORTS...WYOMING/IDAHO/WASHINGTON

CITY           SKY/WX    TMP DP  RH WIND       PRES   REMARKS
GILLETTE       CLOUDY    21  18  88 W12       29.92F WCI   9
SHERIDAN       PTCLDY    21  16  81 SW7       29.95F WCI  12
BUFFALO WY     CLOUDY    18  10  71 NW5       29.91F
CODY           CLOUDY    20   5  52 W6        29.92F WCI  12
YELLOWSTONE LA   N/A      2   0  91 CALM      29.88F
IDAHO FALLS    CLOUDY    11   6  81 SW3       30.05F
SALMON         CLOUDY    25  19  80 S7        30.03S WCI  17
BOISE          CLEAR     23  15  71 SE7       30.14F WCI  15
SPOKANE        MOCLDY    17  14  88 SW3       30.11F FOG
$$

REGIONAL REPORTS...ALBERTA

CITY           SKY/WX    TMP DP  RH WIND       PRES   REMARKS
EDMONTON       PTCLDY     9   5  85 SW5       29.93F
CALGARY        LGT SNOW  14  10  85 SE7       29.85F FOG     WCI   4
LETHBRIDGE     CLOUDY    19 N/A N/A NE6       29.90F WCI  11
MEDICINE HAT   LGT SNOW  18  14  86 NE7       29.98F WCI   8
WATERTON GATE    N/A     21   7  53 SW13G18     N/A  WCI   9
MILK RIVER       N/A     10   9  92 W5          N/A
ONEFOUR          N/A     18  16  93 SW2         N/A
$$

REGIONAL REPORTS...SASKATCHEWAN

CITY           SKY/WX    TMP DP  RH WIND       PRES   REMARKS
SWIFT CURRENT  LGT SNOW  12  10  92 N12       29.93F WCI  -2
REGINA         FLURRIES  14   9  79 N12       29.96F WCI   0
SASKATOON      MOCLDY     3   0  85 W5        30.02F
CYPRESS HILLS    N/A     10   9  92 CALM        N/A
VAL MARIE        N/A     18  14  86 S1          N/A
ROCKGLEN         N/A     16  14  93 N5          N/A
ASSINIBOIA       N/A     12  10  92 S3          N/A
$$




USA.gov is the U.S. government's official web portal to all federal, state and local government web resources and services.